DateTimeUTC,F1_A11,F1_S11,BsB_S11,BsG_S11,BsR_S11,BbsB_S11,BbsG_S11,BbsR_S11,BaB_A11,BaG_A11,BaR_A11,Tu_S11,T_S11,Uu_S11,U_S11,P_S11,T1_A11
2021-01-10T01:00:00Z,00000200,21000000,,,,,,,0000.11,0000.11,-000.13,15.8,22.8,,00.0,0640.7,30.8
2021-01-10T01:01:00Z,00000200,21000000,,,,,,,-000.12,-000.10,0000.08,15.8,22.8,,00.0,0640.7,30.8
2021-01-10T01:02:00Z,00000200,21000000,,,,,,,-000.16,-000.21,-000.16,15.8,22.9,,00.0,0640.7,30.8
2021-01-10T01:03:00Z,00000200,61000000,,,,,,,0000.11,0000.09,0000.07,15.8,22.9,,00.0,0640.7,30.8
2021-01-10T01:04:00Z,00000200,41000000,-000.19,-000.04,0000.11,0000.79,-000.17,0000.22,-000.56,-000.27,-000.33,15.8,22.6,,00.0,0641.4,30.8
2021-01-10T01:05:00Z,00000200,01000000,-000.53,0000.11,-000.20,0000.09,0000.03,0000.05,0000.46,0000.22,0000.45,15.8,22.5,,00.0,0641.5,30.8
2021-01-10T01:06:00Z,00000200,01000000,-000.07,0000.10,-000.03,0000.29,-000.10,0000.05,-000.02,0000.25,0000.20,15.8,22.5,,00.0,0641.5,30.8
2021-01-10T01:07:00Z,00000200,01000000,0000.56,0000.14,-000.02,-000.17,-000.10,0000.06,0000.22,0000.18,0000.22,15.8,22.5,,00.0,0641.5,30.8
2021-01-10T01:08:00Z,00000200,01000000,0000.39,0000.24,-000.04,0000.24,0000.12,0000.10,0000.32,-000.09,0000.05,15.9,22.5,,00.0,0641.5,30.8
2021-01-10T01:09:00Z,00000200,01000000,0000.31,-000.01,-000.13,0000.59,0000.13,-000.14,0000.07,0000.23,-000.11,16.0,22.6,,00.0,0641.5,30.8
2021-01-10T01:10:00Z,00000200,01000000,0000.12,0000.20,0000.10,0000.07,0000.10,0000.22,-000.03,-000.03,0000.39,16.0,22.6,,00.0,0641.4,30.8
2021-01-10T01:11:00Z,00000200,01000000,0000.33,-000.03,0000.04,0000.46,0000.06,0000.29,0000.40,0000.41,-000.08,16.1,22.6,,00.0,0641.4,30.8
2021-01-10T01:12:00Z,00000200,01000000,0000.10,0000.19,-000.06,0000.57,0000.22,-000.03,-000.15,-000.13,-000.17,16.2,22.7,,00.0,0641.4,30.8
2021-01-10T01:13:00Z,00000200,01000000,-000.27,-000.22,0000.03,0000.24,0000.07,0000.25,-000.08,-000.18,-000.10,16.2,22.7,,00.0,0641.4,30.8
2021-01-10T01:14:00Z,00000200,01000000,0000.41,0000.17,-000.22,0000.25,-000.05,-000.11,0000.31,0000.25,0000.18,16.2,22.7,,00.0,0641.4,30.8
2021-01-10T01:15:00Z,00000200,01000000,0000.54,0000.34,-000.04,0000.51,0000.18,0000.14,-000.18,-000.13,-000.30,16.1,22.7,,00.0,0641.5,30.8
2021-01-10T01:16:00Z,00000200,01000000,-000.14,-000.12,0000.09,0000.53,0000.02,-000.14,-000.18,-000.30,-000.15,16.1,22.6,,00.0,0641.5,30.8
2021-01-10T01:17:00Z,00000200,01000000,0000.06,-000.17,-000.03,0000.44,-000.07,0000.04,0000.31,0000.17,0000.17,16.0,22.6,,00.0,0641.5,30.8
2021-01-10T01:18:00Z,00000200,01000000,0000.56,-000.28,-000.14,0000.24,0000.19,0000.02,-000.29,0000.01,-000.05,15.9,22.6,,00.0,0641.5,30.8
2021-01-10T01:19:00Z,00000200,01000000,0000.17,0000.06,-000.05,0000.29,-000.02,0000.26,-000.03,-000.00,0000.28,15.9,22.5,,00.0,0641.5,30.8
2021-01-10T01:20:00Z,00000200,01000000,-000.11,0000.41,-000.01,0000.13,-000.04,0000.22,0000.39,0000.37,0000.31,15.8,22.5,,00.0,0641.4,30.8
2021-01-10T01:21:00Z,00000200,01000000,-000.53,-000.03,-000.05,0000.35,0000.04,0000.10,0000.32,0000.27,-000.12,15.8,22.5,,00.0,0641.4,30.8
2021-01-10T01:22:00Z,00000200,01000000,-000.27,-000.10,-000.10,0001.08,0000.22,0000.41,0000.36,0000.10,0000.23,15.9,22.5,,00.0,0641.4,30.8
2021-01-10T01:23:00Z,00000200,01000000,0000.01,0000.15,0000.15,0000.40,0000.16,0000.34,-000.21,0000.19,0000.03,15.9,22.5,,00.0,0641.5,30.8
2021-01-10T01:24:00Z,00000200,01000000,0000.31,0000.16,-000.02,0000.29,0000.12,0000.31,0000.09,-000.17,0000.16,16.0,22.5,,00.0,0641.5,30.8
2021-01-10T01:25:00Z,00000200,01000000,0000.84,0000.12,-000.06,0000.65,0000.10,0000.10,-000.11,0000.12,-000.39,16.1,22.6,,00.0,0641.5,30.8
2021-01-10T01:26:00Z,00000200,01000000,-000.18,-000.28,0000.14,0000.47,-000.07,0000.45,-000.09,-000.03,0000.23,16.1,22.6,,00.0,0641.5,30.8
2021-01-10T01:27:00Z,00000200,01000000,0000.06,-000.14,0000.03,-000.09,-000.20,-000.07,-000.02,-000.35,-000.37,16.2,22.6,,00.0,0641.4,30.8
2021-01-10T01:28:00Z,00000200,01000000,0000.12,0000.11,0000.46,0000.20,-000.14,0000.43,-000.10,0000.16,-000.01,16.1,22.6,,00.0,0641.4,30.8
2021-01-10T01:29:00Z,00000200,01000000,0000.18,0000.25,-000.01,0000.03,-000.20,0000.04,-000.28,0000.03,0000.08,16.1,22.6,,00.0,0641.4,30.8
2021-01-10T01:30:00Z,00000200,01000000,0000.07,0000.08,0000.13,-000.15,-000.11,0000.25,0000.20,-000.08,0000.04,16.0,22.6,,00.0,0641.5,30.8
2021-01-10T01:31:00Z,00000200,01000000,0000.77,0000.04,-000.08,0000.27,-000.05,0000.21,-000.13,-000.23,-000.11,15.9,22.6,,00.0,0641.5,30.8
2021-01-10T01:32:00Z,00000200,01000000,0000.05,-000.21,0000.09,-000.05,0000.14,0000.13,0000.11,-000.01,-000.21,15.9,22.5,,00.0,0641.5,30.8
2021-01-10T01:33:00Z,00000200,01000000,0000.10,-000.34,-000.17,0000.57,-000.19,0000.37,-000.25,-000.02,-000.16,15.8,22.5,,00.0,0641.5,30.8
2021-01-10T01:34:00Z,00000200,01000000,-000.07,0000.18,0000.08,0000.53,0000.06,0000.07,0000.08,-000.20,0000.33,15.8,22.4,,00.0,0641.5,30.7
2021-01-10T01:35:00Z,00000200,01000000,0000.13,0000.03,-000.02,-000.15,-000.29,0000.30,-000.12,0000.16,-000.05,15.7,22.4,,00.0,0641.5,30.7
2021-01-10T01:36:00Z,00000200,01000000,-000.20,0000.04,0000.00,0000.06,0000.03,0000.19,0000.39,-000.07,0000.29,15.7,22.4,,00.0,0641.5,30.8
2021-01-10T01:37:00Z,00000200,01000000,-000.06,0000.21,-000.20,0000.11,0000.18,0000.36,-000.31,0000.32,-000.13,15.8,22.4,,00.0,0641.5,30.8
2021-01-10T01:38:00Z,00000200,01000000,-000.14,-000.18,-000.03,0000.56,0000.13,0000.05,0000.09,-000.36,-000.10,15.8,22.4,,00.0,0641.5,30.8
2021-01-10T01:39:00Z,00000200,01000000,0000.21,0000.03,-000.04,0000.23,0000.17,0000.18,-000.07,0000.07,0000.02,15.9,22.5,,00.0,0641.5,30.8
2021-01-10T01:40:00Z,00000200,01000000,-000.10,0000.00,0000.14,0000.22,-000.20,0000.50,-000.34,-000.59,-000.00,16.0,22.5,,00.0,0641.5,30.8
2021-01-10T01:41:00Z,00000200,01000000,-000.24,-000.12,-000.04,0000.38,0000.05,0000.13,0000.06,0000.55,-000.30,16.0,22.5,,00.0,0641.5,30.8
2021-01-10T01:42:00Z,00000200,01000000,0000.26,0000.24,-000.12,0000.38,0000.01,0000.18,0000.17,-000.18,0000.30,16.0,22.5,,00.0,0641.4,30.8
2021-01-10T01:43:00Z,00000200,01000000,-000.18,-000.09,-000.26,0000.13,-000.03,-000.08,-000.17,-000.24,-000.30,15.9,22.4,,00.0,0641.4,30.8
2021-01-10T01:44:00Z,00000200,01000000,0000.42,0000.14,-000.09,0000.70,-000.24,0000.34,-000.26,-000.08,-000.10,15.8,22.4,,00.0,0641.4,30.8
2021-01-10T01:45:00Z,00000200,01000000,0000.45,-000.01,0000.17,0000.91,0000.00,0000.33,-000.26,-000.25,-000.18,15.8,22.4,,00.0,0641.4,30.8
2021-01-10T01:46:00Z,00000200,01000000,0000.43,0000.01,-000.13,0000.25,0000.07,-000.05,0000.27,0000.33,0000.18,15.7,22.4,,00.0,0641.4,30.7
2021-01-10T01:47:00Z,00000200,01000000,-000.13,0000.34,-000.08,0000.26,0000.08,0000.30,-000.07,-000.06,-000.13,15.7,22.4,,00.0,0641.4,30.7
2021-01-10T01:48:00Z,00000200,01000000,-000.23,-000.14,0000.05,-000.02,0000.06,0000.30,-000.20,-000.35,-000.04,15.6,22.3,,00.0,0641.4,30.7
2021-01-10T01:49:00Z,00000200,01000000,-000.02,-000.14,0000.06,-000.35,0000.02,0000.18,0000.26,-000.31,-000.15,15.5,22.3,,00.0,0641.4,30.7
2021-01-10T01:50:00Z,00000200,01000000,-000.11,-000.06,-000.13,0000.89,-000.18,0000.19,0000.01,0000.33,0000.26,15.5,22.2,,00.0,0641.4,30.7
2021-01-10T01:51:00Z,00000200,01000000,-000.30,0000.05,-000.14,0000.41,0000.10,0000.20,0000.11,0000.50,0000.16,15.5,22.2,,00.0,0641.3,30.7
2021-01-10T01:52:00Z,00000200,01010000,0000.11,-000.07,-000.18,0000.78,-000.25,0000.33,0000.21,0000.28,0000.05,15.6,22.2,,00.0,0641.3,30.7
2021-01-10T01:53:00Z,00000200,01000000,0000.19,-000.02,0000.11,0000.25,0000.22,0000.09,0000.26,0000.19,0000.13,15.6,22.2,,00.0,0641.3,30.8
2021-01-10T01:54:00Z,00000200,01000000,0000.50,0000.04,0000.08,0000.21,-000.09,0000.22,0000.02,-000.08,0000.22,15.7,22.3,,00.0,0641.4,30.8
2021-01-10T01:55:00Z,00000200,01000000,0000.20,-000.13,-000.14,0000.08,0000.12,0000.14,0000.15,0000.14,-000.03,15.7,22.3,,00.0,0641.4,30.8
2021-01-10T01:56:00Z,00000200,01000000,-000.59,0000.33,-000.00,0000.36,-000.09,0000.22,0000.33,0000.28,0000.31,15.8,22.3,,00.0,0641.4,30.8
2021-01-10T01:57:00Z,00000200,41000000,,,,,,,-000.77,-000.32,-000.29,15.9,22.4,,00.0,0641.3,30.8
2021-01-10T01:58:00Z,00000200,61000000,,,,,,,-000.20,-000.43,-000.15,15.6,22.5,,00.0,0640.5,30.8
2021-01-10T01:59:00Z,00000200,21000000,,,,,,,0000.11,0000.17,0000.04,15.5,22.6,,00.0,0640.5,30.8
